FDB12T OBBI-OMDB

Flight info

Callsign FDB12T
Flight time N/A
Altitude 25000
Route BHR N697 SODAK P559 VUTEB
Aircraft B738/M-SDE2E3FGHIRWXY/LB1

Departure

Time 2026-05-08 12:04
Airport Bahrain International Airport (OBBI)

Arrival

Time N/A
Airport Dubai International Airport (OMDB)
Time Latitude Longitude Altitude Speed Heading
2026-05-08 11:51 26.27636 50.61954 17 ft 0 kts 301°
2026-05-08 11:54 26.27645 50.61939 16 ft 7 kts 309°
2026-05-08 11:54 26.27688 50.61952 16 ft 9 kts 96°
2026-05-08 11:55 26.27632 50.62059 18 ft 22 kts 130°
2026-05-08 11:55 26.27627 50.62065 18 ft 22 kts 133°
2026-05-08 12:00 26.27609 50.62085 19 ft 25 kts 135°
2026-05-08 12:00 26.27491 50.62269 25 ft 35 kts 117°
2026-05-08 12:01 26.27360 50.62467 31 ft 38 kts 117°
2026-05-08 12:01 26.27344 50.62726 36 ft 20 kts 106°
2026-05-08 12:01 26.27300 50.62803 35 ft 6 kts 145°
2026-05-08 12:01 26.27231 50.62838 34 ft 21 kts 158°
2026-05-08 12:02 26.27076 50.63009 29 ft 39 kts 125°
2026-05-08 12:02 26.26917 50.63285 26 ft 53 kts 123°
2026-05-08 12:02 26.26682 50.63689 23 ft 69 kts 123°
2026-05-08 12:02 26.26391 50.64187 19 ft 72 kts 123°
2026-05-08 12:03 26.26127 50.64635 19 ft 64 kts 123°
2026-05-08 12:03 26.25981 50.64882 19 ft 14 kts 111°
2026-05-08 12:03 26.26023 50.64885 18 ft 10 kts 276°
2026-05-08 12:03 26.26034 50.64821 19 ft 10 kts 295°
2026-05-08 12:04 26.26312 50.64328 19 ft 137 kts 303°
2026-05-08 12:04 26.27003 50.63109 109 ft 229 kts 302°
2026-05-08 12:04 26.27886 50.61421 1154 ft 271 kts 296°
2026-05-08 12:04 26.28673 50.59489 2458 ft 295 kts 295°
2026-05-08 12:05 26.29432 50.57924 4091 ft 277 kts 300°
2026-05-08 12:05 26.30910 50.56690 5847 ft 269 kts 15°
2026-05-08 12:05 26.31882 50.58389 6439 ft 296 kts 96°
2026-05-08 12:05 26.30403 50.59797 6827 ft 329 kts 177°
2026-05-08 12:06 26.28306 50.59095 6598 ft 372 kts 201°
2026-05-08 12:06 26.25784 50.58712 7133 ft 360 kts 172°
2026-05-08 12:06 26.23741 50.59578 7196 ft 344 kts 148°
2026-05-08 12:06 26.22163 50.60798 7109 ft 336 kts 140°
2026-05-08 12:07 26.20636 50.62699 6290 ft 336 kts 119°
2026-05-08 12:07 26.20014 50.65060 6087 ft 312 kts 94°
2026-05-08 12:07 26.20255 50.67417 6085 ft 286 kts 72°
2026-05-08 12:07 26.21162 50.69326 6083 ft 271 kts 49°
2026-05-08 12:08 26.22670 50.70529 6089 ft 272 kts 23°
2026-05-08 12:08 26.24473 50.71117 6095 ft 272 kts
2026-05-08 12:08 26.26382 50.71005 6153 ft 281 kts 345°
2026-05-08 12:08 26.28121 50.70482 6568 ft 284 kts 348°
2026-05-08 12:09 26.29160 50.70267 6808 ft 285 kts 351°